Location: Buckenweiler
(49.0667°N, 10.2500°E)
Time: 13:54:17
(UTC+00:00)

Lacrosse 5 rocket - Visible Passes

Search period start: 19 April 2026 00:00
Search period end: 29 April 2026 00:00
Orbit: 390 x 477 km, 57.0° (Epoch: 19 April)

Date Brightness Start Highest point End Pass type
(mag) Time Alt. Az. Time Alt. Az. Time Alt. Az.
19 Apr 3.0 19:08:39 10° WNW 19:11:15 22° NNW 19:13:51 10° NE visible
19 Apr 2.9 20:46:09 10° NW 20:48:40 21° N 20:49:45 18° NE visible
19 Apr 3.8 22:22:38 10° NW 22:23:01 13° NW 22:23:01 13° NW visible
20 Apr 3.1 20:03:35 10° NW 20:06:01 20° N 20:08:26 10° NE visible
20 Apr 2.9 21:40:12 10° NW 21:41:53 25° NNW 21:41:53 25° NNW visible
21 Apr 3.1 19:20:54 10° NW 19:23:19 19° N 19:25:43 10° NE visible
21 Apr 2.1 20:57:44 10° NW 21:00:38 31° NNE 21:00:43 31° NNE visible
22 Apr 2.5 20:15:13 10° NW 20:17:58 26° NNE 20:19:32 18° ENE visible
22 Apr 3.1 21:51:41 10° WNW 21:52:47 20° WNW 21:52:47 20° WNW visible
23 Apr 2.7 19:32:38 10° NW 19:35:13 22° NNE 19:37:48 10° ENE visible
23 Apr 1.6 21:09:06 10° NW 21:11:34 48° NNW 21:11:34 48° NNW visible
24 Apr 1.3 20:26:31 10° NW 20:29:37 47° NNE 20:30:19 39° ENE visible
24 Apr 3.7 22:03:22 10° WNW 22:03:34 11° WNW 22:03:34 11° WNW visible
25 Apr 1.8 19:43:55 10° NW 19:46:53 35° NNE 19:49:04 16° E visible
25 Apr 2.4 21:20:31 10° WNW 21:22:19 27° W 21:22:19 27° W visible
26 Apr 2.2 19:01:16 10° NW 19:04:05 28° NNE 19:06:53 10° E visible
26 Apr 0.6 20:37:44 10° WNW 20:40:53 64° SW 20:41:03 62° SSW visible
27 Apr 0.6 19:55:01 10° NW 19:58:12 82° NE 19:59:47 27° ESE visible
27 Apr 3.5 21:32:41 10° W 21:33:02 11° WSW 21:33:02 11° WSW visible
28 Apr 1.0 19:12:17 10° NW 19:15:25 55° NNE 19:18:31 10° ESE visible
28 Apr 2.5 20:49:18 10° W 20:51:46 21° SW 20:51:46 21° SW visible
